SCP
0 0 0 0 0 0 0 0 0 0 0 1 1 1 2 2 2 1 1 1 1 0 0 0 0 0 0 0 0 0 0 0 0 0 0 0 0 0 0 0 0 0 0 0
0 0 0 0 0 0 0 0 0 0 0 1 1 1 1 1 1 1 1 1 0 0 0 0 0 0 0 0 0 0 0 0 0 0 0 0 0 0 0 0 0 0 0 0
0 0 0 0 0 0 0 0 0 0 0 0 0 1 1 1 1 1 1 0 0 0 0 0 0 0 0 0 0 0 0 0 0 0 0 0 0 0 0 0 0 0 0 0
0 0 0 0 0 0 0 0 0 0 0 0 0 0 0 0 0 0 0 0 0 0 0 0 0 0 0 0 1 1 0 0 0 0 0 0 0 0 0 0 0 0 0 0
0 0 0 0 0 0 0 0 0 0 0 0 0 0 0 0 0 0 0 0 0 0 0 0 0 0 0 0 0 0 0 0 0 0 0 0 0 0 0 0 0 0 0 0
0 0 0 0 0 0 0 0 0 0 0 0 0 0 0 0 0 0 0 0 0 0 0 0 0 0 0 0 0 0 0 0 0 0 0 0 0 0 0 0 0 0 0 0
0 0 0 0 0 0 0 0 0 0 0 0 0 0 0 0 0 0 0 0 0 0 0 0 0 0 0 0 0 0 0 0 0 0 0 0 0 0 0 0 0 0 0 0
0 0 0 0 0 0 0 0 0 0 0 0 0 0 0 0 0 0 0 0 0 0 0 0 0 0 0 0 0 0 0 0 0 0 0 0 0 0 0 0 0 0 0 0
0 0 0 0 0 0 0 0 0 0 0 0 0 0 0 0 0 0 0 0 0 0 0 0 0 0 0 0 0 0 0 0 0 0 0 0 0 0 0 0 0 0 0 0
0 0 0 0 0 0 0 0 0 0 0 0 0 0 0 0 0 0 0 0 0 0 0 0 0 0 0 0 0 0 0 0 0 0 0 0 0 0 0 0 0 0 0 0
0 0 0 0 0 0 0 0 0 0 0 0 0 0 0 0 0 0 0 0 0 0 0 0 0 0 0 0 0 0 0 0 0 0 0 0 0 0 0 0 0 0 0 0
0 0 0 0 0 0 0 0 0 0 0 0 0 0 0 0 0 0 0 0 0 0 0 0 0 0 0 0 0 0 0 0 0 0 0 0 0 0 0 0 0 0 0 0
0 0 0 0 0 0 0 0 0 0 0 0 0 0 0 0 0 0 0 0 0 0 0 0 0 0 0 0 0 0 0 0 0 0 0 0 0 0 0 0 0 0 0 0
0 0 0 0 0 0 0 0 0 0 0 0 0 0 0 0 0 0 0 0 0 0 0 0 0 0 0 0 0 0 0 0 0 0 0 0 0 0 0 0 0 0 0 0
0 0 0 0 0 0 0 0 0 0 0 0 0 0 0 0 0 0 0 0 0 0 0 0 0 0 0 0 0 0 0 0 0 0 0 0 0 0 0 0 0 0 0 0
0 0 0 0 0 0 0 0 0 0 0 0 0 0 0 0 0 0 0 0 0 0 0 0 0 0 0 0 0 0 0 0 0 0 0 0 0 0 0 0 0 0 0 0
0 0 0 0 0 0 0 0 0 0 0 0 0 0 0 0 0 0 0 0 0 0 0 0 0 0 0 0 0 0 0 0 0 0 0 0 0 0 0 0 0 0 0 0
0 0 0 0 0 0 0 0 0 0 0 0 0 0 0 0 0 0 0 0 0 0 0 0 0 0 0 0 0 0 0 0 0 0 0 0 0 0 0 0 0 0 0 0
0 0 0 0 0 0 0 0 0 0 0 0 0 0 0 0 0 0 0 0 0 0 0 0 0 0 0 0 0 0 0 0 0 0 0 0 0 0 0 0 0 0 0 0
0 0 0 0 0 0 0 0 0 0 0 0 0 0 0 0 0 0 0 0 0 0 0 0 0 0 0 0 0 0 0 0 0 0 0 0 0 0 0 0 0 0 0 0
0 0 0 0 0 0 0 0 0 0 0 0 0 0 0 0 0 0 0 0 0 0 0 0 0 0 0 0 0 0 0 0 0 0 0 0 0 0 0 0 0 0 0 0
0 0 0 0 0 0 0 0 0 0 0 0 0 0 0 0 0 0 0 0 0 0 0 0 0 0 0 0 0 0 0 0 0 0 0 0 0 0 0 0 0 0 0 0
0 0 0 0 0 0 0 0 0 0 0 0 0 0 0 0 0 0 0 0 0 0 0 0 0 0 0 0 0 0 0 0 0 0 0 0 0 0 0 0 0 0 0 0
0 0 0 0 0 0 0 0 0 0 0 0 0 0 0 0 0 0 0 0 0 0 0 0 0 0 0 0 0 0 0 0 0 0 0 0 0 0 0 0 0 0 0 0
0 0 0 0 0 0 0 0 0 0 0 0 0 0 0 0 0 0 0 0 0 0 0 0 0 0 0 0 0 0 0 0 0 0 0 0 0 0 0 0 0 0 0 0
0 0 0 0 0 0 0 0 0 0 0 0 0 0 0 0 0 0 0 0 0 0 0 0 0 0 0 0 0 0 0 0 0 0 0 0 0 0 0 0 0 0 0 0
Wind_Speed
2 2 4 8 8 6 4 3 3 1 1 3 3 4 5 4 4 4 4 5 6 6 5 5 6 6 5 4 4 3 2 1 1 1 2 2 2 2 2 3 4 5 5 5
2 5 9 5 4 4 4 3 2 2 3 3 2 1 2 3 4 5 5 6 7 6 5 6 6 6 6 5 5 4 3 2 1 1 1 1 0 1 2 3 4 5 5 5
6 7 3 2 2 3 3 4 4 4 3 5 2 2 1 1 2 3 5 5 6 7 8 7 7 7 6 6 6 5 5 3 2 1 1 2 2 3 3 3 3 4 5 5
5 5 2 2 2 2 2 1 5 6 5 4 4 2 3 1 2 3 5 5 6 6 6 6 7 7 8 7 5 5 4 4 2 2 1 1 1 2 3 2 3 5 5 5
5 2 1 2 1 3 3 6 8 6 5 4 5 2 6 2 3 4 5 6 6 6 6 7 7 8 7 6 5 5 4 4 2 2 2 1 2 3 2 3 4 4 4 4
4 2 1 0 3 5 7 7 8 6 5 3 2 1 6 3 5 4 4 5 6 6 6 6 5 4 4 4 4 4 4 4 2 2 2 3 4 4 4 4 4 4 3 3
7 5 1 2 4 3 5 7 5 5 4 2 1 1 8 7 6 6 6 7 6 5 5 5 5 5 5 5 4 4 4 4 3 3 3 4 4 4 5 5 4 4 3 3
3 6 3 2 4 5 3 7 6 4 3 3 1 4 8 6 5 6 6 5 5 5 5 6 6 6 5 5 4 4 4 4 3 4 4 4 4 3 4 4 4 4 4 4
2 5 4 1 2 7 5 3 5 7 2 1 4 6 8 3 4 4 4 4 5 5 5 5 5 5 5 4 4 5 5 4 5 5 5 5 5 5 5 5 4 4 4 5
4 3 5 3 4 4 5 8 6 6 5 1 4 4 5 6 7 5 4 5 5 4 4 5 5 4 3 3 2 2 4 5 5 5 5 4 5 5 5 4 5 5 5 5
3 2 5 4 2 0 2 4 6 5 5 6 3 8 8 9 8 7 7 6 6 6 6 6 4 2 2 1 2 3 4 4 5 6 5 5 5 5 5 5 6 6 6 6
3 5 2 4 3 1 1 4 7 5 3 4 4 10 5 7 7 6 7 6 5 6 5 3 3 2 2 3 4 4 5 5 6 6 5 6 6 5 5 6 7 6 7 7
6 6 3 8 8 5 2 2 4 6 6 5 4 9 4 2 3 5 6 6 6 6 5 3 3 3 4 5 5 5 6 7 6 5 5 5 6 6 6 7 7 6 7 7
7 5 6 5 7 3 4 2 5 6 5 5 8 9 6 4 5 6 6 6 5 5 5 4 5 5 6 6 5 6 7 6 6 5 5 6 7 6 7 7 7 7 7 7
6 4 5 6 5 3 5 7 5 7 8 9 8 8 11 9 9 8 6 5 5 5 6 7 7 6 6 6 6 6 6 6 5 5 6 7 7 6 6 6 7 7 7 8
4 5 3 3 2 3 5 6 4 5 4 6 4 9 9 5 3 4 6 6 7 8 8 8 8 7 7 7 6 6 6 6 4 5 7 7 6 6 6 7 7 7 8 8
4 6 4 4 5 3 5 4 3 4 5 8 9 9 3 5 9 10 9 8 9 10 9 9 9 8 8 7 6 7 7 5 4 6 6 6 6 6 7 7 7 8 8 8
7 6 4 1 1 3 10 4 5 5 5 7 6 6 7 9 8 6 7 9 10 10 9 10 9 8 7 6 5 5 5 5 5 5 6 6 6 7 7 7 8 8 7 8
5 8 5 4 3 6 10 5 4 4 6 6 7 7 4 2 2 5 8 10 12 12 10 10 9 7 5 6 5 4 5 4 5 6 6 6 6 7 7 8 8 8 7 8
5 5 6 4 4 6 12 5 2 4 5 7 7 8 6 7 3 10 9 10 12 10 8 8 6 5 5 5 3 4 5 5 6 6 6 6 6 7 8 9 9 8 7 8
3 3 3 4 5 9 10 2 4 3 10 6 10 10 11 12 13 9 6 9 12 11 10 7 6 5 6 5 4 5 5 7 7 5 5 6 6 7 8 8 8 8 8 8
3 2 3 4 2 8 4 5 8 11 6 4 9 11 13 15 12 7 7 9 10 10 9 8 6 7 5 5 5 6 7 6 5 5 5 6 7 7 7 7 8 8 8 8
6 8 7 9 9 9 4 8 9 4 6 7 8 11 14 14 13 12 10 10 10 11 9 7 7 7 5 5 6 7 7 5 4 5 6 7 7 7 7 8 8 8 7 6
5 3 4 5 10 9 8 8 8 8 11 11 10 10 10 14 15 13 11 10 10 9 8 7 7 7 6 6 7 8 6 4 4 5 6 6 7 8 7 6 6 7 7 7
7 4 3 6 10 9 9 7 7 8 8 10 9 8 10 13 14 13 11 12 10 8 7 7 8 8 8 7 8 7 6 5 5 5 6 6 7 7 7 7 6 8 8 8
4 5 5 8 9 5 8 9 9 8 8 8 6 6 5 9 12 10 10 8 6 7 7 7 8 8 7 7 7 7 6 5 5 5 6 5 5 6 6 7 8 9 11 13
Wind_Direction
129 91 231 229 207 210 208 210 228 230 64 83 118 145 176 179 183 175 182 181 184 196 204 201 203 199 197 202 203 204 192 196 132 67 55 38 2 344 350 353 360 1 360 2
34 263 244 234 211 207 208 212 191 84 51 84 101 146 182 185 195 191 195 197 197 200 205 211 211 210 208 211 213 213 211 208 184 133 120 128 343 314 307 320 340 354 357 356
216 249 262 221 217 197 214 196 174 143 97 54 59 1 245 205 205 210 211 209 204 203 205 210 214 217 217 220 216 213 212 211 195 138 92 47 20 355 343 338 335 335 339 344
246 263 280 275 255 169 287 297 126 119 99 29 33 332 296 288 278 224 219 215 217 219 215 214 218 221 221 224 215 211 210 209 202 155 149 177 257 280 276 288 298 311 323 332
271 284 285 287 309 129 93 69 83 85 91 53 25 19 297 347 280 250 232 228 230 228 224 223 223 224 221 212 203 202 200 209 205 187 193 215 252 255 280 291 299 307 314 320
267 287 221 164 42 98 120 70 54 51 61 35 338 30 291 265 237 257 240 231 231 232 231 231 228 218 216 200 191 185 190 213 213 215 221 224 251 271 289 295 298 302 306 310
340 334 312 117 82 40 79 82 35 3 14 275 267 249 256 257 238 231 240 239 233 232 226 220 211 205 208 199 190 181 188 216 226 233 243 240 246 253 258 268 273 284 293 294
6 316 286 196 169 167 148 130 155 196 220 279 309 256 257 255 254 242 239 239 236 233 221 214 209 205 208 203 186 183 195 221 234 240 251 252 249 243 248 252 254 261 261 269
188 273 295 261 171 135 137 141 150 121 107 27 296 292 301 261 254 242 236 234 238 231 213 210 209 207 207 200 196 197 205 226 239 241 247 255 253 246 251 259 258 258 259 268
175 252 299 311 73 58 121 138 101 105 127 262 301 280 251 254 243 231 224 229 236 217 207 212 214 214 214 212 215 214 217 228 240 244 244 248 250 249 253 262 266 265 267 268
143 179 312 4 54 169 114 92 99 103 142 151 233 266 228 221 220 217 225 224 214 206 211 220 227 233 234 243 241 242 242 246 253 252 251 255 259 258 259 260 263 267 271 273
129 117 303 292 293 313 202 158 148 146 194 167 178 265 261 234 233 216 224 221 210 212 222 233 244 256 258 258 259 256 255 252 253 253 252 252 259 264 264 264 266 267 271 273
135 103 37 348 344 353 14 128 132 123 117 151 175 263 295 274 223 215 214 214 213 223 235 248 253 250 253 257 260 259 256 255 259 256 252 257 261 260 261 263 267 268 269 274
114 111 151 193 229 267 301 252 155 138 152 194 220 249 284 252 224 220 216 215 218 231 236 236 246 250 252 254 256 259 263 260 260 255 251 256 258 257 260 265 267 267 267 271
113 159 206 230 241 244 253 262 206 192 194 190 227 228 246 228 217 217 213 214 219 234 236 234 238 246 252 257 261 260 265 267 260 254 254 256 260 262 264 267 269 269 269 272
113 165 185 275 266 263 265 270 229 208 200 215 244 257 248 232 196 219 222 213 220 233 237 239 240 244 247 247 253 261 265 265 258 252 257 263 267 267 268 269 272 275 276 276
136 139 139 260 305 360 308 262 229 229 211 187 211 239 219 191 206 216 217 210 217 227 231 234 236 235 238 239 241 249 256 265 260 257 264 268 267 269 270 273 277 278 279 278
140 131 140 186 30 250 250 242 220 231 243 211 228 242 212 212 217 225 210 204 218 225 229 233 233 234 235 234 236 244 258 262 263 266 270 271 269 271 274 275 276 277 276 277
143 135 128 137 193 271 294 280 187 190 263 221 220 239 206 118 54 291 228 207 215 218 220 225 224 221 225 232 234 242 259 263 266 267 269 270 271 274 278 278 278 278 278 280
74 102 119 138 173 233 253 268 164 122 274 244 200 206 168 130 176 252 232 207 220 225 223 223 218 209 223 235 220 230 253 261 262 263 266 271 272 273 276 277 278 277 276 279
33 60 139 176 214 257 255 251 127 168 243 237 196 195 173 186 208 225 216 207 214 219 221 213 201 206 221 217 192 225 246 253 255 262 269 274 273 274 276 277 276 279 281 283
199 181 195 147 193 262 253 151 185 220 237 222 207 201 195 215 229 236 234 222 217 217 216 200 196 216 220 200 195 224 242 248 254 260 270 276 279 281 285 281 283 281 279 284
198 191 186 187 217 241 247 220 240 233 240 238 217 215 207 219 231 232 233 230 222 215 208 191 194 213 221 205 199 222 240 239 246 260 272 279 286 285 282 279 282 286 281 279
266 178 169 245 266 264 271 264 261 236 232 246 234 223 202 214 229 230 230 228 221 214 200 186 186 208 225 216 212 223 232 229 238 259 274 282 288 291 289 281 275 278 281 283
238 187 209 257 273 295 295 277 276 283 267 260 253 231 216 219 231 228 227 226 218 205 187 178 190 209 224 219 222 229 228 220 238 259 274 283 284 285 291 288 277 274 269 262
226 193 199 240 249 239 272 298 313 307 297 286 277 273 247 222 236 235 235 233 211 193 179 184 198 210 222 220 228 230 223 214 229 260 274 278 284 288 290 296 300 278 264 270